Location: Lafig�re
(44.4503°N, 4.0357°E)
Time: 14:28:23
(UTC+00:00)

Vanguard 2 Rocket - Pass Details

Date: 18 June 2021
Orbit: 555 x 3325 km, 32.9° (Epoch: 28 July)

Event Time Altitude Azimuth Distance (km) Brightness Sun altitude
Rises 20:48:02 0° 251° (WSW) 7,281 11.8 -11.0°
Reaches altitude 10° 20:53:21 10° 247° (WSW) 6,132 11.3 -11.6°
Maximum altitude 21:10:44 52° 179° (S) 2,899 9.1 -13.5°
Drops below altitude 10° 21:21:42 10° 108° (ESE) 4,007 9.7 -14.6°
Enters shadow 21:22:55 - 105° (ESE) 4,303 9.9 -14.7°
